Location: Baili�vre
(50.0696°N, 4.2409°E)
Time: 06:29:39
(UTC+00:00)

Meteor 1-23 Rocket - Pass Details

Date: 08 August 2020
Orbit: 836 x 889 km, 81.3° (Epoch: 23 September)

Event Time Altitude Azimuth Distance (km) Brightness Sun altitude
Rises 22:45:55 0° 348° (NNW) 3,510 8.9 -22.7°
Reaches altitude 10° 22:48:23 10° 349° (N) 2,567 7.8 -22.8°
Maximum altitude 22:54:15 84° 77° (ENE) 900 4.2 -23.1°
Enters shadow 22:55:46 52° 161° (SSE) 1,093 4.3 -23.1°
